�N����,����,�~����,�C��,���x,�C��,����,���ϕ���,�ő�u�ԕ���,�ő厞����,���˗�,�I�_���x,�n�����x,�ő啗���N��,DTYPE
"16/04/27","00:10",0.0,15.5,78.2,1008.6,306.1,1.0,1.9,346.0,0.00,11.8,18.0,"00:06:40",1
"16/04/27","00:20",0.0,15.4,78.4,1008.6,309.4,1.2,1.8,326.3,0.00,11.7,17.9,"00:12:00",1
"16/04/27","00:30",0.0,15.3,79.4,1008.6,286.3,1.1,1.3,298.3,0.00,11.8,18.2,"00:26:48",1
"16/04/27","00:40",0.0,15.3,80.1,1008.6,289.6,1.1,1.7,282.7,0.00,11.9,17.9,"00:38:08",1
"16/04/27","00:50",0.0,15.2,80.6,1008.3,311.7,1.2,1.8,327.7,0.00,11.9,17.9,"00:45:44",1
"16/04/27","01:00",0.0,15.2,80.5,1008.6,307.8,1.6,2.6,302.8,0.00,11.9,17.6,"00:59:44",1
"16/04/27","01:10",0.0,15.3,80.5,1008.3,304.9,1.6,2.1,301.3,0.00,12.0,17.7,"01:01:28",1
"16/04/27","01:20",0.0,15.4,80.5,1008.6,300.6,1.7,3.3,328.5,0.00,12.1,17.6,"01:14:08",1
"16/04/27","01:30",0.0,15.4,80.5,1008.3,308.6,2.0,3.4,314.9,0.00,12.1,17.6,"01:28:32",1
"16/04/27","01:40",0.0,15.5,80.1,1007.8,327.2,1.8,2.9,318.5,0.00,12.1,17.6,"01:31:04",1
"16/04/27","01:50",0.0,15.5,80.2,1007.8,298.8,0.7,1.8,326.5,0.00,12.1,17.6,"01:40:32",1
"16/04/27","02:00",0.0,15.4,80.4,1007.8,302.8,1.1,1.8,332.8,0.00,12.1,17.5,"01:58:40",1
"16/04/27","02:10",0.0,15.4,80.6,1007.6,293.5,1.1,1.8,326.5,0.00,12.1,17.6,"02:00:16",1
"16/04/27","02:20",0.0,15.3,81.9,1007.6,326.9,1.5,2.0,334.1,0.00,12.3,17.4,"02:18:40",1
"16/04/27","02:30",0.0,15.1,83.2,1007.8,319.7,1.3,1.9,326.6,0.00,12.3,17.4,"02:21:28",1
"16/04/27","02:40",0.0,14.9,83.8,1007.6,289.7,1.0,1.2,312.6,0.00,12.2,17.3,"02:32:16",1
"16/04/27","02:50",0.0,14.9,83.7,1008.1,298.6,1.0,1.3,307.6,0.00,12.2,17.3,"02:46:56",1
"16/04/27","03:00",0.0,14.9,83.7,1008.1,290.8,1.1,1.8,316.3,0.00,12.2,17.3,"02:56:56",1
"16/04/27","03:10",0.0,15.0,83.9,1008.3,297.2,1.0,1.4,340.7,0.00,12.3,17.2,"03:00:40",1
"16/04/27","03:20",0.0,15.1,83.9,1008.3,308.2,1.2,1.9,317.5,0.00,12.4,17.4,"03:17:12",1
"16/04/27","03:30",0.0,15.0,84.9,1008.1,329.1,1.6,2.0,336.5,0.00,12.5,17.2,"03:23:04",1
"16/04/27","03:40",0.0,14.8,85.5,1008.1,289.4,1.0,1.6,333.2,0.00,12.4,17.2,"03:30:32",1
"16/04/27","03:50",0.0,14.9,85.0,1007.8,298.9,1.0,1.7,320.7,0.00,12.4,17.2,"03:48:56",1
"16/04/27","04:00",0.0,15.0,85.0,1007.8,326.7,1.3,1.9,317.9,0.00,12.5,17.1,"03:50:08",1
"16/04/27","04:10",0.0,14.8,85.8,1007.4,310.4,1.3,1.9,323.1,0.00,12.5,17.1,"04:02:40",1
"16/04/27","04:20",0.0,14.6,86.8,1007.6,302.7,1.0,1.3,307.6,0.00,12.5,17.1,"04:10:24",1
"16/04/27","04:30",0.0,14.6,87.7,1007.6,327.0,1.2,1.7,323.8,0.00,12.6,17.2,"04:25:20",1
"16/04/27","04:40",0.0,14.7,87.8,1007.6,333.8,1.3,1.7,336.6,0.00,12.7,16.7,"04:35:04",1
"16/04/27","04:50",0.0,14.6,88.0,1007.6,303.0,1.2,1.4,318.2,0.00,12.7,17.0,"04:40:40",1
"16/04/27","05:00",0.0,14.6,87.8,1007.6,290.1,0.8,1.0,285.4,0.00,12.6,16.9,"04:54:32",1
"16/04/27","05:10",0.0,14.6,87.8,1007.4,302.3,1.1,1.3,325.7,0.00,12.6,17.0,"05:01:28",1
"16/04/27","05:20",0.0,14.8,87.8,1006.9,300.0,1.2,1.7,322.2,0.00,12.8,17.0,"05:10:56",1
"16/04/27","05:30",0.0,14.9,87.4,1006.9,282.8,1.1,1.2,272.8,0.00,12.9,17.0,"05:23:36",1
"16/04/27","05:40",0.0,15.0,87.1,1006.7,293.3,1.0,1.8,313.5,0.00,12.9,17.0,"05:39:04",1
"16/04/27","05:50",0.0,15.2,86.9,1006.9,306.4,1.2,1.8,316.0,0.00,13.1,17.0,"05:40:48",1
"16/04/27","06:00",0.0,15.4,86.4,1006.7,301.0,1.2,1.7,324.7,0.00,13.2,17.0,"05:50:24",1
"16/04/27","06:10",0.0,15.5,86.6,1007.1,317.4,0.8,1.7,325.0,0.00,13.3,16.9,"06:08:56",1
"16/04/27","06:20",0.0,15.5,87.3,1007.1,332.8,1.1,1.7,324.5,0.00,13.4,16.8,"06:11:12",1
"16/04/27","06:30",0.0,15.5,87.3,1006.9,325.1,1.2,1.6,317.1,0.01,13.4,17.0,"06:21:52",1
"16/04/27","06:40",0.0,15.6,87.4,1007.1,326.6,0.8,1.7,315.0,0.01,13.6,16.8,"06:39:52",1
"16/04/27","06:50",0.0,15.8,88.0,1006.9,311.9,1.3,1.6,329.4,0.02,13.9,16.8,"06:41:20",1
"16/04/27","07:00",0.0,16.0,88.2,1006.9,302.3,1.1,1.3,316.9,0.02,14.1,16.9,"06:55:36",1
"16/04/27","07:10",0.0,16.2,86.9,1006.9,298.4,1.1,1.4,309.7,0.02,14.1,16.9,"07:03:44",1
"16/04/27","07:20",0.0,16.3,85.2,1007.4,287.7,1.2,2.0,309.4,0.03,13.9,17.0,"07:19:04",1
"16/04/27","07:30",0.0,16.5,84.3,1007.1,310.3,1.2,1.7,335.6,0.03,13.9,17.0,"07:24:08",1
"16/04/27","07:40",0.0,16.6,84.3,1007.4,289.0,0.8,1.6,319.2,0.03,14.0,17.0,"07:37:12",1
"16/04/27","07:50",0.0,16.8,83.7,1007.6,287.8,1.0,1.3,283.7,0.03,14.1,17.0,"07:41:44",1
"16/04/27","08:00",0.0,17.0,83.0,1007.1,288.3,0.8,1.1,301.8,0.04,14.1,16.9,"07:54:08",1
"16/04/27","08:10",0.0,17.2,82.1,1007.1,311.4,1.1,1.6,317.1,0.04,14.2,17.0,"08:05:52",1
"16/04/27","08:20",0.0,17.5,82.0,1007.4,327.9,1.1,1.8,333.7,0.05,14.4,17.1,"08:14:48",1
"16/04/27","08:30",0.0,17.8,82.1,1007.4,338.4,1.1,1.7,338.6,0.06,14.7,17.1,"08:25:20",1
"16/04/27","08:40",0.0,17.9,80.1,1007.1,319.3,1.0,1.6,328.3,0.06,14.5,17.1,"08:39:44",1
"16/04/27","08:50",0.0,18.1,78.6,1007.6,298.8,1.0,1.3,316.0,0.06,14.4,17.3,"08:40:08",1
"16/04/27","09:00",0.0,18.2,77.7,1007.6,319.0,1.3,1.9,343.5,0.06,14.3,17.3,"08:54:08",1
"16/04/27","09:10",0.0,18.3,78.2,1007.1,329.0,1.3,1.9,338.9,0.06,14.5,17.2,"09:02:56",1
"16/04/27","09:20",0.0,18.5,76.6,1007.6,309.1,1.1,1.3,302.7,0.07,14.4,17.2,"09:10:24",1
"16/04/27","09:30",0.0,18.7,76.3,1007.4,293.6,0.8,1.2,333.2,0.07,14.5,17.4,"09:22:00",1
"16/04/27","09:40",0.0,18.8,75.3,1006.9,288.1,0.8,1.2,274.2,0.07,14.4,17.2,"09:31:44",1
"16/04/27","09:50",0.0,18.9,75.0,1007.1,288.5,1.1,1.9,319.9,0.07,14.4,17.3,"09:49:44",1
"16/04/27","10:00",0.0,19.1,75.8,1006.9,294.1,1.2,2.1,312.9,0.07,14.8,17.5,"09:54:08",1
"16/04/27","10:10",0.0,19.2,74.6,1007.1,100.6,1.2,3.6,124.4,0.08,14.6,17.4,"10:06:08",1
"16/04/27","10:20",0.0,19.2,73.8,1006.9,125.1,1.6,2.9,114.0,0.10,14.5,17.5,"10:11:52",1
"16/04/27","10:30",0.0,19.3,74.4,1006.9,102.7,1.3,3.7,140.9,0.10,14.7,17.5,"10:26:32",1
"16/04/27","10:40",0.0,19.4,72.6,1007.1,82.2,1.0,1.9,125.2,0.10,14.4,17.7,"10:38:32",1
"16/04/27","10:50",0.0,19.5,74.4,1006.9,91.3,1.0,2.7,33.9,0.11,14.9,17.5,"10:40:16",1
"16/04/27","11:00",0.0,19.5,73.1,1006.7,119.5,1.3,2.5,114.5,0.13,14.6,17.5,"10:54:48",1
"16/04/27","11:10",0.0,20.0,71.1,1006.4,101.6,1.1,3.3,111.6,0.17,14.6,17.5,"11:02:40",1
"16/04/27","11:20",0.0,20.4,68.7,1006.4,55.3,0.8,2.1,110.9,0.18,14.5,17.7,"11:12:48",1
"16/04/27","11:30",0.0,20.4,68.3,1005.5,33.0,1.1,2.5,353.4,0.15,14.4,17.8,"11:29:20",1
"16/04/27","11:40",0.0,20.5,68.4,1005.2,12.2,1.1,2.9,13.8,0.15,14.5,17.9,"11:30:24",1
"16/04/27","11:50",0.0,20.5,68.4,1005.5,94.2,1.3,2.8,83.6,0.16,14.5,17.9,"11:46:40",1
"16/04/27","12:00",0.0,20.3,68.4,1005.2,130.1,1.7,3.7,124.6,0.12,14.3,18.1,"11:50:40",1
"16/04/27","12:10",0.0,20.5,67.5,1005.2,116.6,2.0,4.1,117.1,0.09,14.3,18.1,"12:09:36",1
"16/04/27","12:20",0.0,20.3,69.0,1005.0,127.3,1.8,4.3,127.5,0.11,14.5,18.2,"12:17:28",1
"16/04/27","12:30",0.0,20.4,67.8,1004.8,136.7,1.7,3.3,138.6,0.10,14.3,18.1,"12:20:32",1
"16/04/27","12:40",0.0,20.5,68.0,1004.8,126.1,1.8,4.7,111.9,0.13,14.4,18.2,"12:37:20",1
"16/04/27","12:50",0.0,20.3,69.6,1004.5,114.0,2.1,3.9,111.7,0.11,14.6,18.1,"12:48:08",1
"16/04/27","13:00",0.0,20.5,69.1,1004.3,103.1,1.7,3.9,119.5,0.13,14.7,18.1,"12:51:28",1
"16/04/27","13:10",0.0,20.7,68.6,1004.3,71.0,1.0,2.7,82.0,0.18,14.8,18.4,"13:03:20",1
"16/04/27","13:20",0.0,20.3,71.4,1004.3,67.2,1.1,3.5,115.5,0.14,15.0,18.2,"13:17:28",1
"16/04/27","13:30",0.0,20.0,72.1,1004.1,49.1,1.1,3.3,34.8,0.12,14.9,18.3,"13:29:36",1
"16/04/27","13:40",0.0,20.0,73.5,1004.3,86.8,1.3,3.7,115.9,0.09,15.2,18.5,"13:34:08",1
"16/04/27","13:50",0.0,19.9,74.7,1004.5,104.6,1.3,3.3,126.5,0.08,15.3,18.2,"13:42:08",1
"16/04/27","14:00",0.0,20.0,73.4,1004.1,23.9,1.1,2.7,76.0,0.09,15.1,18.3,"13:58:48",1
"16/04/27","14:10",0.0,19.9,73.7,1004.3,68.9,1.5,2.9,92.7,0.08,15.1,18.4,"14:06:16",1
"16/04/27","14:20",0.0,19.5,77.1,1004.1,41.8,1.1,2.8,119.2,0.09,15.4,18.4,"14:10:08",1
"16/04/27","14:30",0.0,19.6,76.7,1003.8,25.4,1.2,3.1,355.7,0.08,15.4,18.5,"14:22:16",1
"16/04/27","14:40",0.0,19.4,76.7,1003.6,30.1,1.2,2.5,351.5,0.07,15.2,18.3,"14:34:08",1
"16/04/27","14:50",0.0,19.2,76.8,1003.8,3.6,0.8,2.2,75.3,0.05,15.1,18.5,"14:48:08",1
"16/04/27","15:00",0.2,19.1,77.6,1003.4,44.2,0.7,1.8,351.6,0.03,15.1,18.3,"14:50:32",1
"16/04/27","15:10",0.0,19.0,79.0,1003.6,71.8,0.7,1.7,142.9,0.02,15.3,18.5,"15:07:04",1
"16/04/27","15:20",0.0,18.8,79.2,1003.6,327.6,0.6,1.8,319.1,0.00,15.2,18.4,"15:12:00",1
"16/04/27","15:30",0.2,18.7,81.0,1003.6,333.8,1.3,2.0,335.2,0.00,15.4,18.1,"15:24:16",1
"16/04/27","15:40",0.0,18.5,81.7,1003.4,350.0,0.7,1.6,114.0,0.02,15.4,18.3,"15:36:08",1
"16/04/27","15:50",0.2,18.5,82.9,1003.6,338.8,0.8,1.9,334.4,0.02,15.6,18.3,"15:49:28",1
"16/04/27","16:00",0.2,18.3,83.9,1003.6,3.9,1.0,2.2,119.3,0.02,15.6,18.2,"15:56:32",1
"16/04/27","16:10",0.2,18.1,84.5,1003.4,7.3,0.6,1.8,66.4,0.02,15.5,18.2,"16:00:48",1
"16/04/27","16:20",0.2,18.0,85.0,1003.6,349.7,0.8,1.3,17.3,0.01,15.5,18.2,"16:13:52",1
"16/04/27","16:30",0.2,17.8,85.4,1003.4,345.9,0.8,1.6,349.2,0.00,15.4,18.0,"16:28:32",1
"16/04/27","16:40",0.4,17.7,86.2,1003.6,320.9,0.6,1.6,299.9,0.00,15.4,18.0,"16:31:28",1
"16/04/27","16:50",0.2,17.6,86.3,1003.6,338.1,0.7,1.6,331.2,0.00,15.3,18.1,"16:41:12",1
"16/04/27","17:00",0.2,17.5,87.4,1003.6,322.2,1.3,2.1,317.9,0.00,15.4,18.1,"16:52:32",1
"16/04/27","17:10",0.2,17.3,87.9,1003.8,316.3,1.0,1.3,312.6,0.00,15.3,18.0,"17:00:32",1
"16/04/27","17:20",0.4,17.1,87.8,1003.6,349.4,1.1,1.8,342.6,0.00,15.1,17.8,"17:11:14",1
"16/04/27","17:30",0.4,17.0,87.3,1003.6,31.8,1.0,2.7,48.5,0.00,14.9,17.9,"17:29:12",1
"16/04/27","17:40",0.2,16.9,86.4,1003.6,49.9,0.8,2.1,28.5,0.00,14.7,18.1,"17:39:36",1
"16/04/27","17:50",0.4,16.7,86.1,1003.8,13.4,1.1,2.6,11.9,0.00,14.4,17.8,"17:46:18",1
"16/04/27","18:00",0.2,16.5,85.8,1003.4,60.6,0.8,2.7,77.0,0.00,14.2,17.9,"17:58:32",1
"16/04/27","18:10",0.4,16.3,86.1,1003.4,355.8,0.7,2.5,27.9,0.00,14.0,17.8,"18:08:32",1
"16/04/27","18:20",0.0,16.2,87.0,1003.1,112.8,0.8,2.7,114.9,0.00,14.1,17.7,"18:14:32",1
"16/04/27","18:30",0.2,16.0,86.9,1003.1,352.8,0.7,1.7,57.4,0.00,13.9,17.6,"18:25:20",1
"16/04/27","18:40",0.2,16.1,87.3,1003.1,43.5,1.0,3.7,121.8,0.00,14.0,17.5,"18:38:08",1
"16/04/27","18:50",0.0,16.0,88.0,1002.6,132.6,0.8,1.6,123.3,0.00,14.1,17.5,"18:41:44",1
"16/04/27","19:00",0.0,15.9,88.3,1002.4,311.0,0.5,1.4,124.4,0.00,14.0,17.6,"18:58:24",1
"16/04/27","19:10",0.0,15.8,87.9,1002.2,96.5,0.7,2.6,120.1,0.00,13.8,17.6,"19:02:00",1
"16/04/27","19:20",0.0,15.8,87.3,1001.9,112.4,1.2,2.8,119.0,0.00,13.7,17.5,"19:15:28",1
"16/04/27","19:30",0.0,15.7,87.3,1001.9,99.0,0.7,1.7,117.8,0.00,13.6,17.3,"19:20:56",1
"16/04/27","19:40",0.0,15.8,87.6,1001.9,359.5,0.5,2.6,63.0,0.00,13.8,17.4,"19:35:36",1
"16/04/27","19:50",0.0,15.7,88.1,1001.9,266.8,0.7,1.2,268.5,0.00,13.8,17.3,"19:44:40",1
"16/04/27","20:00",0.0,15.7,88.8,1001.7,224.9,0.6,1.6,198.1,0.00,13.9,17.4,"19:51:04",1
"16/04/27","20:10",0.0,15.7,89.0,1002.2,222.8,0.5,1.2,196.7,0.00,13.9,17.2,"20:04:08",1
"16/04/27","20:20",0.0,15.9,88.8,1002.2,111.1,0.8,1.8,110.8,0.00,14.1,17.2,"20:15:52",1
"16/04/27","20:30",0.0,16.1,87.9,1001.7,71.6,0.8,2.1,80.1,0.00,14.1,17.2,"20:28:48",1
"16/04/27","20:40",0.0,16.2,87.5,1001.5,62.7,1.0,2.0,47.7,0.00,14.2,17.3,"20:30:56",1
"16/04/27","20:50",0.0,16.3,87.6,1001.5,98.7,1.1,3.7,103.1,0.00,14.3,17.3,"20:46:24",1
"16/04/27","21:00",0.0,16.4,87.2,1001.5,92.9,1.2,2.6,108.4,0.00,14.3,17.1,"20:53:20",1
"16/04/27","21:10",0.0,16.6,86.6,1001.7,104.5,1.5,3.6,104.7,0.00,14.4,17.1,"21:04:24",1
"16/04/27","21:20",0.0,16.6,86.1,1001.7,118.3,1.7,3.9,107.8,0.00,14.3,17.1,"21:15:04",1
"16/04/27","21:30",0.0,16.7,85.1,1001.7,119.4,1.7,3.9,99.5,0.00,14.2,17.2,"21:27:12",1
"16/04/27","21:40",0.0,16.9,84.4,1001.5,109.7,1.6,4.2,118.0,0.00,14.3,16.9,"21:35:12",1
"16/04/27","21:50",0.0,16.9,83.6,1001.2,116.0,2.0,3.7,116.2,0.00,14.1,17.1,"21:48:08",1
"16/04/27","22:00",0.0,17.0,83.8,1001.5,110.2,1.8,3.6,111.5,0.00,14.3,16.9,"21:52:00",1
"16/04/27","22:10",0.0,16.8,84.7,1001.5,119.7,2.1,4.8,135.1,0.00,14.3,17.1,"22:09:52",1
"16/04/27","22:20",0.0,16.6,85.1,1001.2,103.5,1.7,5.0,124.3,0.00,14.1,16.8,"22:10:16",1
"16/04/27","22:30",0.2,16.6,85.8,1001.0,74.4,1.0,2.9,71.8,0.00,14.3,17.1,"22:20:40",1
"16/04/27","22:40",0.0,16.5,86.3,1000.5,89.0,1.1,2.7,95.6,0.00,14.2,16.8,"22:38:16",1
"16/04/27","22:50",0.0,16.5,86.5,1000.3,83.7,1.3,2.9,97.9,0.00,14.3,17.0,"22:48:00",1
"16/04/27","23:00",0.0,16.4,86.2,1000.0,84.3,1.2,3.2,105.0,0.00,14.1,16.8,"22:54:16",1
"16/04/27","23:10",0.0,16.4,84.8,1000.3,109.3,1.6,4.1,122.2,0.00,13.9,16.8,"23:07:12",1
"16/04/27","23:20",0.0,16.4,83.3,999.6,112.9,2.1,4.9,110.0,0.00,13.6,16.9,"23:13:12",1
"16/04/27","23:30",0.0,16.3,83.3,999.8,115.6,2.0,5.2,119.0,0.00,13.5,16.9,"23:24:48",1
"16/04/27","23:40",0.0,16.0,83.7,999.6,100.5,1.8,4.1,117.0,0.00,13.3,16.9,"23:31:44",1
"16/04/27","23:50",0.0,16.1,83.3,999.1,101.7,2.0,4.5,111.0,0.00,13.3,16.7,"23:47:12",1
"16/04/27","24:00",0.0,16.1,81.7,999.1,105.6,2.2,6.2,125.6,0.00,13.0,16.7,"23:55:44",1
